[[{"header":{"parameterUnit":"m.s-1","parameterCategory":1,"la1":30.2991,"la2":30.254,"lo1":-89.0895,"lo2":-89.0444,"dy":0.0017,"dx":0.0017,"nx":28,"ny":28,"refTime":"2025-03-25T03:00:00:Z","depth":0,"parameterNumber":2,"parameterNumberName":"U-component_of_WINDS"},"data":[0,0,0,0,0,0,0,0,0,0,0,0,0,0,0,0,0,0,0,0,0,0,0,0,0,0,0,0,0,0,0,0,0,0,0,0,0,0,0,0,0,0,0,0,0,0,0,0,0,0,0,0,0,0,0,0,0,0,1.0783,1.0784,0,1.0808,1.0808,1.0808,1.0785,1.0784,1.0783,1.0782,1.0809,1.0811,1.0812,0,0,0,0,0,0,0,0,0,0,0,0,0,1.0718,1.072,1.0783,1.0784,1.0784,1.0808,1.0808,1.0808,1.0785,1.0784,1.0783,1.0782,1.0809,1.081,1.0812,0,0,0,0,0,0,0,0,0,0,0,0,0,1.0745,1.072,1.0783,1.0775,1.0775,1.0808,1.0808,1.0809,1.0785,1.0784,1.0783,1.0781,1.0808,1.081,1.0813,1.0856,0,0,1.082,1.0821,0,0,0,0,0,0,0,0,1.0744,1.0747,1.0776,1.0776,1.0775,1.0792,1.0795,1.0824,1.0786,1.0781,1.0782,1.0781,1.0805,1.0807,1.0815,1.0857,1.0858,1.082,1.0822,1.0823,1.0823,0,0,0,0,0,0,0,1.0742,1.0746,1.0793,1.0776,1.0776,1.0771,1.0773,1.08,1.0801,1.0782,1.078,1.0783,1.0804,1.0813,1.0815,1.0858,1.082,1.0822,1.0824,1.0825,1.0937,1.0939,0,0,0,0,0,0,1.074,1.0745,1.0792,1.0794,1.0756,1.0773,1.0776,1.0788,1.08,1.0801,1.0784,1.0782,1.0809,1.0813,1.0816,1.0868,1.0823,1.0825,1.0826,1.0936,1.0938,1.0939,0,0,0,0,0,0,1.0739,1.0745,1.0791,1.0769,1.0774,1.0776,1.079,1.0789,1.0798,1.0802,1.0802,1.0793,1.0808,1.0813,1.0846,1.0868,1.0826,1.0828,1.0934,1.0936,1.0939,1.0971,0,0,0,0,0,0,1.0737,1.0745,1.076,1.0769,1.0776,1.082,1.0791,1.0791,1.0802,1.0799,1.081,1.0811,1.0808,1.0843,1.0848,1.0871,1.083,1.0932,1.0935,1.0938,1.0968,1.0974,1.0979,0,0,0,0,0,1.0735,1.0769,1.0761,1.0767,1.0795,1.0821,1.0825,1.082,1.0804,1.082,1.0823,1.081,1.0865,1.0846,1.0852,1.0876,1.0931,1.0934,1.0938,1.0965,1.0972,1.0979,0,0,0,0,0,0,1.0763,1.077,1.0762,1.0799,1.081,1.0817,1.0838,1.0828,1.0844,1.0841,1.0835,1.0837,1.0872,1.0877,1.0856,1.0918,1.0895,1.09,1.0914,1.0921,1.0927,1.0925,1.0832,0,0,0,0,0,1.0773,1.0793,1.0798,1.0831,1.0836,1.0836,1.0847,1.0843,1.0854,1.0858,1.0864,1.0876,1.0895,1.0908,1.0927,1.0968,1.0971,1.0988,1.0993,1.0998,1.1002,1.1025,1.1033,1.0951,1.0951,1.0951,0,0,1.0795,1.0801,1.0814,1.0836,1.0844,1.0865,1.084,1.0864,1.088,1.0862,1.0893,1.0898,1.0911,1.0948,1.0965,1.0954,1.1026,1.1003,1.1006,1.1008,1.103,1.1037,1.1044,1.0953,1.0953,1.0953,0,0,1.0845,1.0851,1.0879,1.0888,1.09,1.0899,1.0906,1.0916,1.0918,1.0949,1.0936,1.0956,1.099,1.1,1.1009,1.1064,1.1053,1.107,1.11,1.1122,1.1129,1.1135,1.1154,1.1162,1.1075,1.1075,1.1075,0,1.087,1.0901,1.0895,1.092,1.093,1.0915,1.0943,1.0952,1.097,1.0978,1.0965,1.1007,1.1015,1.1055,1.1068,1.1076,1.1084,1.1069,1.1128,1.1134,1.1139,1.1158,1.1166,1.1077,1.1076,1.1076,1.1076,0,1.0932,1.0954,1.0975,1.0992,1.1005,1.1032,1.103,1.1044,1.1039,1.104,1.1073,1.1081,1.1102,1.1111,1.1106,1.115,1.1143,1.1129,1.1106,1.1149,1.1167,1.1174,1.1079,1.1079,1.1078,1.1078,0,0,1.1,1.1014,1.1021,1.1029,1.1042,1.1059,1.1085,1.1104,1.1117,1.113,1.1152,1.1181,1.1169,1.118,1.1176,1.1195,1.1239,1.118,1.118,1.119,1.1289,1.1299,1.1307,1.1232,1.1233,1.1234,1.1288,0,1.1051,1.1096,1.1091,1.1134,1.1154,1.1141,1.1164,1.1174,1.1177,1.1195,1.1197,1.1219,1.12,1.1207,1.1226,1.123,1.1259,1.1226,1.1253,1.1254,1.125,1.1316,1.1327,1.1377,1.1295,1.1296,1.1297,0,1.1116,1.1131,1.1176,1.1185,1.1194,1.1214,1.1232,1.1249,1.1262,1.1262,1.1274,1.1267,1.1294,1.127,1.1308,1.1286,1.1297,1.1301,1.1303,1.1305,1.1278,1.1321,1.1393,1.14,1.1307,1.1307,1.1306,0,1.1161,1.1192,1.1223,1.123,1.1243,1.1257,1.1263,1.1274,1.1286,1.1302,1.131,1.1328,1.1339,1.1354,1.1352,1.1335,1.1391,1.1367,1.1392,1.1393,1.1405,1.1404,1.1479,1.1412,1.1412,1.1412,1.1412,0,1.1218,1.1246,1.1244,1.1263,1.1294,1.1289,1.132,1.1325,1.1334,1.1355,1.1344,1.1363,1.136,1.138,1.1379,1.141,1.1415,1.1417,1.1416,1.1418,1.1417,1.1425,1.1421,1.1414,1.1413,1.1413,1.1413,0,1.1273,1.1273,1.1306,1.1315,1.1318,1.134,1.1348,1.1367,1.1368,1.1394,1.14,1.1403,1.1425,1.1425,1.1451,1.145,1.1489,1.1485,1.1485,1.1484,1.151,1.1507,1.1592,1.1603,1.1529,1.153,1.153,0,1.1309,1.1331,1.1342,1.1354,1.1361,1.1382,1.1394,1.139,1.1403,1.1419,1.1436,1.1457,1.1474,1.1511,1.1516,1.1536,1.1532,1.156,1.1535,1.1536,1.1532,1.1531,1.1533,1.1565,1.1566,1.1567,1.1567,0,1.1374,1.1373,1.139,1.1409,1.1423,1.1437,1.145,1.1461,1.1459,1.1475,1.1497,1.1511,1.1537,1.1559,1.1578,1.1585,1.1576,1.1575,1.1582,1.1584,1.1583,1.1584,1.1498,1.1573,1.1573,1.1572,1.1572,1.1572,1.1421,1.1439,1.145,1.1471,1.148,1.1492,1.151,1.1514,1.1533,1.1553,1.155,1.1576,1.1588,1.1613,1.1622,1.1642,1.1632,1.1642,1.1645,1.1647,1.165,1.158,1.1646,1.1646,1.1645,1.1645,1.1645,0,1.1485,1.1491,1.151,1.1528,1.1545,1.1535,1.1549,1.1563,1.1585,1.1597,1.1614,1.1641,1.1662,1.1668,1.1689,1.1704,1.1701,1.171,1.1708,1.171,1.1658,1.165,1.1712,1.1712,1.1712,1.1712,1.1712,1.1712,1.152,1.1551,1.1551,1.1587,1.1593,1.1617,1.1626,1.1638,1.1648,1.1678,1.1695,1.1699,1.1709,1.173,1.175,1.1751,1.1759,1.177,1.177,1.1721,1.1714,1.1707,1.17,1.1772,1.1772,1.182,1.1821,1.1821]},{"header":{"parameterUnit":"m.s-1","parameterCategory":1,"la1":30.2991,"la2":30.254,"lo1":-89.0895,"lo2":-89.0444,"dy":0.0017,"dx":0.0017,"nx":28,"ny":28,"refTime":"2025-03-25T03:00:00:Z","depth":0,"parameterNumber":3,"parameterNumberName":"V-component_of_WINDS"},"data":[0,0,0,0,0,0,0,0,0,0,0,0,0,0,0,0,0,0,0,0,0,0,0,0,0,0,0,0,0,0,0,0,0,0,0,0,0,0,0,0,0,0,0,0,0,0,0,0,0,0,0,0,0,0,0,0,0,0,-0.0367,-0.0368,0,-0.0443,-0.0443,-0.0444,-0.048,-0.048,-0.048,-0.048,-0.0558,-0.056,-0.0562,0,0,0,0,0,0,0,0,0,0,0,0,0,-0.0256,-0.0258,-0.0367,-0.0368,-0.0369,-0.0442,-0.0443,-0.0444,-0.048,-0.048,-0.048,-0.048,-0.0557,-0.056,-0.0562,0,0,0,0,0,0,0,0,0,0,0,0,0,-0.0315,-0.0259,-0.0367,-0.0396,-0.0399,-0.0442,-0.0443,-0.0445,-0.048,-0.048,-0.048,-0.048,-0.0556,-0.056,-0.0563,-0.0583,0,0,-0.0572,-0.0574,0,0,0,0,0,0,0,0,-0.0312,-0.0319,-0.0391,-0.0394,-0.0398,-0.0452,-0.0433,-0.0491,-0.048,-0.0449,-0.048,-0.048,-0.0523,-0.0529,-0.0543,-0.0587,-0.059,-0.0573,-0.0574,-0.0576,-0.0577,0,0,0,0,0,0,0,-0.0308,-0.0316,-0.0397,-0.0392,-0.0396,-0.0406,-0.0414,-0.0444,-0.0486,-0.0452,-0.0455,-0.0463,-0.0525,-0.054,-0.0545,-0.0591,-0.0572,-0.0575,-0.0577,-0.0578,-0.0657,-0.0657,0,0,0,0,0,0,-0.0299,-0.0313,-0.0395,-0.0399,-0.0354,-0.0408,-0.0417,-0.0435,-0.0485,-0.0493,-0.0463,-0.0465,-0.0534,-0.0541,-0.0548,-0.0576,-0.0576,-0.0579,-0.0581,-0.0657,-0.0657,-0.0657,0,0,0,0,0,0,-0.0296,-0.0306,-0.0392,-0.0357,-0.0368,-0.0409,-0.0429,-0.0436,-0.0451,-0.0494,-0.0501,-0.0471,-0.0535,-0.0543,-0.0574,-0.0579,-0.058,-0.0583,-0.0656,-0.0657,-0.0657,-0.0632,0,0,0,0,0,0,-0.0293,-0.0305,-0.0312,-0.0357,-0.037,-0.0416,-0.0429,-0.0438,-0.0456,-0.0459,-0.0503,-0.051,-0.0535,-0.0569,-0.0577,-0.0584,-0.0585,-0.0656,-0.0657,-0.0657,-0.0633,-0.0631,-0.063,0,0,0,0,0,-0.0289,-0.0302,-0.0313,-0.0322,-0.0381,-0.0416,-0.0424,-0.0453,-0.0457,-0.0465,-0.0493,-0.0509,-0.0577,-0.0572,-0.0582,-0.0589,-0.0656,-0.0656,-0.0657,-0.0633,-0.0632,-0.063,0,0,0,0,0,0,-0.0258,-0.0309,-0.0321,-0.0349,-0.0378,-0.0422,-0.0434,-0.045,-0.0479,-0.048,-0.0514,-0.0524,-0.0552,-0.0574,-0.0567,-0.0612,-0.0618,-0.0621,-0.0597,-0.0596,-0.0595,-0.0589,-0.0588,0,0,0,0,0,-0.0254,-0.0278,-0.0322,-0.0342,-0.0356,-0.0393,-0.0409,-0.0429,-0.046,-0.0473,-0.0503,-0.0533,-0.0562,-0.058,-0.0609,-0.0636,-0.0646,-0.0645,-0.0644,-0.0643,-0.0645,-0.0662,-0.0662,-0.0658,-0.0658,-0.0658,0,0,-0.0247,-0.0278,-0.0291,-0.0337,-0.0362,-0.0387,-0.0403,-0.0428,-0.0448,-0.0477,-0.0508,-0.0531,-0.0568,-0.0597,-0.0611,-0.0616,-0.0648,-0.0644,-0.0642,-0.0645,-0.0663,-0.0663,-0.0663,-0.0659,-0.0659,-0.0659,0,0,-0.0247,-0.0272,-0.0293,-0.0317,-0.0355,-0.0379,-0.0384,-0.0426,-0.0443,-0.0474,-0.0497,-0.0521,-0.0569,-0.0594,-0.0613,-0.0624,-0.064,-0.0632,-0.0627,-0.0643,-0.0643,-0.0644,-0.0648,-0.0649,-0.0634,-0.0633,-0.0633,0,-0.0233,-0.0272,-0.0301,-0.0326,-0.0346,-0.0373,-0.0395,-0.0418,-0.0463,-0.0476,-0.048,-0.0542,-0.0568,-0.0605,-0.0607,-0.0621,-0.0629,-0.0627,-0.0641,-0.0641,-0.0642,-0.0647,-0.0649,-0.0632,-0.0632,-0.0633,-0.0633,0,-0.0254,-0.028,-0.0292,-0.0335,-0.0356,-0.0379,-0.0413,-0.0431,-0.0448,-0.0472,-0.0505,-0.0537,-0.0574,-0.0583,-0.0601,-0.0623,-0.0624,-0.0634,-0.0641,-0.0641,-0.0646,-0.0648,-0.0631,-0.0631,-0.0631,-0.0632,0,0,-0.0236,-0.0295,-0.0299,-0.0319,-0.0363,-0.0384,-0.0409,-0.0444,-0.046,-0.049,-0.0512,-0.0552,-0.0562,-0.0584,-0.0604,-0.0618,-0.0626,-0.0627,-0.0628,-0.0626,-0.0653,-0.0646,-0.0647,-0.0637,-0.0637,-0.0637,-0.065,0,-0.0243,-0.0287,-0.0315,-0.0349,-0.0375,-0.0401,-0.0423,-0.0453,-0.0476,-0.0501,-0.0527,-0.0555,-0.0565,-0.0579,-0.0594,-0.0622,-0.0632,-0.0621,-0.0658,-0.0659,-0.0649,-0.065,-0.0642,-0.0653,-0.0652,-0.0653,-0.0653,0,-0.0256,-0.0286,-0.0322,-0.0364,-0.0376,-0.0395,-0.043,-0.0453,-0.0488,-0.0504,-0.0528,-0.0549,-0.0577,-0.0581,-0.0621,-0.0613,-0.063,-0.0646,-0.0647,-0.0652,-0.0656,-0.0656,-0.0657,-0.0658,-0.0656,-0.0656,-0.0656,0,-0.0241,-0.029,-0.0319,-0.0335,-0.0384,-0.0397,-0.0418,-0.0453,-0.0472,-0.0503,-0.0516,-0.055,-0.0568,-0.0594,-0.0624,-0.0624,-0.0661,-0.0667,-0.0675,-0.0675,-0.0682,-0.0682,-0.0687,-0.0692,-0.0692,-0.0692,-0.0692,0,-0.0246,-0.0267,-0.0312,-0.033,-0.0355,-0.0387,-0.0411,-0.0435,-0.0465,-0.0489,-0.0514,-0.0535,-0.0573,-0.0599,-0.0622,-0.0652,-0.066,-0.0674,-0.068,-0.0672,-0.0671,-0.0684,-0.0685,-0.0692,-0.0692,-0.0692,-0.0692,0,-0.0233,-0.0264,-0.0297,-0.0341,-0.0353,-0.0369,-0.0408,-0.0426,-0.0451,-0.048,-0.0488,-0.0527,-0.0559,-0.0591,-0.0634,-0.065,-0.068,-0.0688,-0.0668,-0.0672,-0.0678,-0.0678,-0.0693,-0.0697,-0.0698,-0.0698,-0.0698,0,-0.0235,-0.0252,-0.0298,-0.0315,-0.0336,-0.0363,-0.0384,-0.0416,-0.0436,-0.0477,-0.0491,-0.0525,-0.0554,-0.0604,-0.0636,-0.067,-0.0679,-0.0682,-0.0685,-0.0676,-0.0681,-0.0679,-0.0682,-0.0682,-0.0681,-0.0681,-0.0681,0,-0.0234,-0.0249,-0.0277,-0.0311,-0.0334,-0.0363,-0.0392,-0.0405,-0.0443,-0.0464,-0.0498,-0.052,-0.0565,-0.0598,-0.0636,-0.0658,-0.0677,-0.068,-0.0684,-0.0676,-0.0665,-0.0672,-0.0666,-0.068,-0.068,-0.068,-0.068,-0.068,-0.023,-0.0247,-0.0282,-0.0313,-0.0338,-0.0365,-0.0385,-0.0412,-0.044,-0.0478,-0.0496,-0.053,-0.0565,-0.0617,-0.0639,-0.0666,-0.0671,-0.0676,-0.0678,-0.0679,-0.0677,-0.066,-0.0673,-0.0673,-0.0673,-0.0673,-0.0673,0,-0.0231,-0.0255,-0.0283,-0.0324,-0.0348,-0.0363,-0.0396,-0.0416,-0.0445,-0.0476,-0.0504,-0.0543,-0.0576,-0.0611,-0.0646,-0.0661,-0.0671,-0.067,-0.0669,-0.0674,-0.0671,-0.0664,-0.0661,-0.0661,-0.0661,-0.0661,-0.0661,-0.0661,-0.0235,-0.0265,-0.0284,-0.0327,-0.0351,-0.0384,-0.0402,-0.0427,-0.0452,-0.0494,-0.0522,-0.0544,-0.0577,-0.0616,-0.0647,-0.0656,-0.0669,-0.0665,-0.0677,-0.0674,-0.0674,-0.0675,-0.0669,-0.0668,-0.0668,-0.0679,-0.0679,-0.0679]}]]